Location: Hains Lake
(37.8540°N, 99.8578°W)
Time: 16:08:10
(UTC+00:00)

X-37B - Visible Passes

Search period start: 08 March 2021 00:00
Search period end: 18 March 2021 00:00
Orbit: 383 x 391 km, 45.0° (Epoch: 27 February)

Date Brightness Start Highest point End Pass type
(mag) Time Alt. Az. Time Alt. Az. Time Alt. Az.
10 Mar 2.2 01:43:06 10° S 01:45:27 19° SE 01:45:35 19° SE visible
11 Mar 1.1 02:20:18 10° SW 02:22:51 52° SW 02:22:51 52° SW visible
12 Mar 1.3 01:22:12 10° SW 01:25:11 37° SE 01:27:38 14° E visible
12 Mar 3.4 02:58:48 10° W 02:59:57 19° WNW 02:59:57 19° WNW visible
13 Mar 1.0 02:00:12 10° WSW 02:03:22 60° NNW 02:04:37 32° NE visible
14 Mar 2.5 02:39:02 10° WNW 02:41:29 27° NNW 02:41:29 27° NNW visible
15 Mar 1.8 01:40:19 10° W 01:43:20 37° NNW 01:45:56 13° NE visible
15 Mar 4.1 03:17:57 10° NW 03:18:14 11° NW 03:18:14 11° NW visible
16 Mar 2.5 02:19:18 10° WNW 02:21:56 23° N 02:22:38 21° NNE visible
17 Mar 2.3 01:20:34 10° WNW 01:23:22 27° NNW 01:26:12 10° NE visible
17 Mar 3.3 02:58:00 10° NW 02:59:15 17° NNW 02:59:15 17° NNW visible
